Year,Month,Day,Hour,Minute,Value (Times are PST for windspeed in km/hr)
2008,02,05,00,00,13.40
2008,02,05,00,01,13.40
2008,02,05,00,02,5.90
2008,02,05,00,03,12.60
2008,02,05,00,04,5.90
2008,02,05,00,05,9.60
2008,02,05,00,06,9.80
2008,02,05,00,07,9.30
2008,02,05,00,08,11.50
2008,02,05,00,09,9.90
2008,02,05,00,10,10.70
2008,02,05,00,11,13.40
2008,02,05,00,12,8.50
2008,02,05,00,13,16.90
2008,02,05,00,14,13.00
2008,02,05,00,15,12.30
2008,02,05,00,16,11.60
2008,02,05,00,17,14.60
2008,02,05,00,18,9.90
2008,02,05,00,19,9.80
2008,02,05,00,20,6.20
2008,02,05,00,21,6.00
2008,02,05,00,22,10.50
2008,02,05,00,23,9.40
2008,02,05,00,24,12.30
2008,02,05,00,25,8.10
2008,02,05,00,26,11.80
2008,02,05,00,27,12.60
2008,02,05,00,28,11.20
2008,02,05,00,29,9.00
2008,02,05,00,30,17.60
2008,02,05,00,31,11.90
2008,02,05,00,32,14.20
2008,02,05,00,33,9.50
2008,02,05,00,34,10.70
2008,02,05,00,35,6.90
2008,02,05,00,36,11.10
2008,02,05,00,37,11.40
2008,02,05,00,38,13.30
2008,02,05,00,39,10.30
2008,02,05,00,40,8.60
2008,02,05,00,41,10.70
2008,02,05,00,42,10.30
2008,02,05,00,43,7.60
2008,02,05,00,44,11.20
2008,02,05,00,45,6.40
2008,02,05,00,46,5.90
2008,02,05,00,47,7.30
2008,02,05,00,48,6.40
2008,02,05,00,49,7.70
2008,02,05,00,50,7.00
2008,02,05,00,51,9.80
2008,02,05,00,52,8.00
2008,02,05,00,53,7.60
2008,02,05,00,54,5.80
2008,02,05,00,55,4.30
2008,02,05,00,56,9.30
2008,02,05,00,57,9.70
2008,02,05,00,58,8.50
2008,02,05,00,59,8.80
2008,02,05,01,00,10.00
2008,02,05,01,01,7.70
2008,02,05,01,02,5.90
2008,02,05,01,03,8.00
2008,02,05,01,04,7.50
2008,02,05,01,05,6.40
2008,02,05,01,06,7.60
2008,02,05,01,07,12.20
2008,02,05,01,08,10.50
2008,02,05,01,09,12.30
2008,02,05,01,10,9.70
2008,02,05,01,11,8.30
2008,02,05,01,12,9.20
2008,02,05,01,13,9.90
2008,02,05,01,14,8.80
2008,02,05,01,15,6.40
2008,02,05,01,16,5.30
2008,02,05,01,17,13.10
2008,02,05,01,18,8.30
2008,02,05,01,19,4.80
2008,02,05,01,20,4.70
2008,02,05,01,21,10.10
2008,02,05,01,22,9.50
2008,02,05,01,23,8.90
2008,02,05,01,24,12.20
2008,02,05,01,25,10.70
2008,02,05,01,26,12.30
2008,02,05,01,27,7.80
2008,02,05,01,28,12.00
2008,02,05,01,29,7.70
2008,02,05,01,30,10.90
2008,02,05,01,31,9.30
2008,02,05,01,32,7.70
2008,02,05,01,33,8.70
2008,02,05,01,34,5.90
2008,02,05,01,35,4.10
2008,02,05,01,36,4.60
2008,02,05,01,37,9.70
2008,02,05,01,38,13.30
2008,02,05,01,39,6.20
2008,02,05,01,40,9.40
2008,02,05,01,41,14.20
2008,02,05,01,42,7.80
2008,02,05,01,43,10.40
2008,02,05,01,44,4.50
2008,02,05,01,45,4.20
2008,02,05,01,46,8.20
2008,02,05,01,47,13.00
2008,02,05,01,48,6.30
2008,02,05,01,49,6.40
2008,02,05,01,50,7.70
2008,02,05,01,51,11.40
2008,02,05,01,52,6.40
2008,02,05,01,53,10.80
2008,02,05,01,54,11.50
2008,02,05,01,55,8.50
2008,02,05,01,56,8.20
2008,02,05,01,57,9.00
2008,02,05,01,58,8.10
2008,02,05,01,59,9.30
2008,02,05,02,00,10.80
2008,02,05,02,01,10.50
2008,02,05,02,02,8.90
2008,02,05,02,03,6.90
2008,02,05,02,04,3.00
2008,02,05,02,05,5.30
2008,02,05,02,06,7.30
2008,02,05,02,07,12.60
2008,02,05,02,08,5.60
2008,02,05,02,09,7.00
2008,02,05,02,10,6.90
2008,02,05,02,11,5.80
2008,02,05,02,12,7.10
2008,02,05,02,13,8.00
2008,02,05,02,14,6.80
2008,02,05,02,15,8.60
2008,02,05,02,16,8.10
2008,02,05,02,17,8.30
2008,02,05,02,18,7.30
2008,02,05,02,19,6.90
2008,02,05,02,20,4.20
2008,02,05,02,21,16.10
2008,02,05,02,22,11.10
2008,02,05,02,23,7.00
2008,02,05,02,24,9.70
2008,02,05,02,25,10.10
2008,02,05,02,26,14.00
2008,02,05,02,27,13.80
2008,02,05,02,28,10.00
2008,02,05,02,29,7.60
2008,02,05,02,30,4.50
2008,02,05,02,31,8.30
2008,02,05,02,32,11.10
2008,02,05,02,33,8.10
2008,02,05,02,34,6.40
2008,02,05,02,35,8.70
2008,02,05,02,36,10.90
2008,02,05,02,37,10.90
2008,02,05,02,38,7.50
2008,02,05,02,39,9.00
2008,02,05,02,40,12.50
2008,02,05,02,41,10.80
2008,02,05,02,42,9.30
2008,02,05,02,43,8.50
2008,02,05,02,44,7.20
2008,02,05,02,45,7.20
2008,02,05,02,46,9.20
2008,02,05,02,47,11.40
2008,02,05,02,48,9.70
2008,02,05,02,49,6.60
2008,02,05,02,50,10.50
2008,02,05,02,51,7.10
2008,02,05,02,52,6.60
2008,02,05,02,53,7.50
2008,02,05,02,54,9.40
2008,02,05,02,55,7.50
2008,02,05,02,56,7.20
2008,02,05,02,57,9.20
2008,02,05,02,58,9.90
2008,02,05,02,59,10.10
2008,02,05,03,00,6.10
2008,02,05,03,01,7.60
2008,02,05,03,02,8.80
2008,02,05,03,03,6.50
2008,02,05,03,04,8.60
2008,02,05,03,05,7.40
2008,02,05,03,06,12.20
2008,02,05,03,07,9.20
2008,02,05,03,08,8.10
2008,02,05,03,09,11.90
2008,02,05,03,10,10.50
2008,02,05,03,11,8.80
2008,02,05,03,12,6.80
2008,02,05,03,13,15.40
2008,02,05,03,14,10.90
2008,02,05,03,15,18.00
2008,02,05,03,16,14.10
2008,02,05,03,17,4.80
2008,02,05,03,18,6.00
2008,02,05,03,19,5.00
2008,02,05,03,20,11.40
2008,02,05,03,21,9.50
2008,02,05,03,22,16.90
2008,02,05,03,23,9.60
2008,02,05,03,24,12.10
2008,02,05,03,25,7.40
2008,02,05,03,26,11.40
2008,02,05,03,27,8.30
2008,02,05,03,28,13.70
2008,02,05,03,29,15.00
2008,02,05,03,30,9.20
2008,02,05,03,31,12.60
2008,02,05,03,32,11.00
2008,02,05,03,33,13.50
2008,02,05,03,34,12.40
2008,02,05,03,35,13.60
2008,02,05,03,36,9.10
2008,02,05,03,37,14.30
2008,02,05,03,38,17.10
2008,02,05,03,39,18.70
2008,02,05,03,40,13.00
2008,02,05,03,41,16.40
2008,02,05,03,42,14.00
2008,02,05,03,43,13.80
2008,02,05,03,44,12.40
2008,02,05,03,45,9.10
2008,02,05,03,46,19.70
2008,02,05,03,47,13.50
2008,02,05,03,48,12.10
2008,02,05,03,49,13.80
2008,02,05,03,50,12.40
2008,02,05,03,51,10.60
2008,02,05,03,52,13.80
2008,02,05,03,53,12.80
2008,02,05,03,54,12.90
2008,02,05,03,55,11.90
2008,02,05,03,56,7.60
2008,02,05,03,57,6.50
2008,02,05,03,58,14.90
2008,02,05,03,59,13.50
2008,02,05,04,00,13.60
2008,02,05,04,01,11.00
2008,02,05,04,02,16.40
2008,02,05,04,03,14.10
2008,02,05,04,04,14.00
2008,02,05,04,05,13.90
2008,02,05,04,06,7.50
2008,02,05,04,07,9.70
2008,02,05,04,08,10.10
2008,02,05,04,09,6.60
2008,02,05,04,10,7.90
2008,02,05,04,11,10.50
2008,02,05,04,12,8.80
2008,02,05,04,13,12.70
2008,02,05,04,14,15.10
2008,02,05,04,15,11.10
2008,02,05,04,16,12.10
2008,02,05,04,17,11.10
2008,02,05,04,18,7.80
2008,02,05,04,19,6.50
2008,02,05,04,20,11.90
2008,02,05,04,21,4.10
2008,02,05,04,22,6.10
2008,02,05,04,23,7.30
2008,02,05,04,24,7.20
2008,02,05,04,25,5.70
2008,02,05,04,26,10.10
2008,02,05,04,27,4.50
2008,02,05,04,28,5.40
2008,02,05,04,29,5.20
2008,02,05,04,30,9.60
2008,02,05,04,31,12.70
2008,02,05,04,32,16.00
2008,02,05,04,33,9.50
2008,02,05,04,34,5.60
2008,02,05,04,35,8.00
2008,02,05,04,36,10.10
2008,02,05,04,37,8.60
2008,02,05,04,38,10.30
2008,02,05,04,39,7.50
2008,02,05,04,40,10.10
2008,02,05,04,41,9.00
2008,02,05,04,42,7.00
2008,02,05,04,43,7.00
2008,02,05,04,44,13.30
2008,02,05,04,45,11.60
2008,02,05,04,46,11.90
2008,02,05,04,47,6.70
2008,02,05,04,48,11.80
2008,02,05,04,49,7.40
2008,02,05,04,50,6.00
2008,02,05,04,51,6.20
2008,02,05,04,52,6.90
2008,02,05,04,53,9.70
2008,02,05,04,54,11.00
2008,02,05,04,55,8.80
2008,02,05,04,56,8.00
2008,02,05,04,57,6.70
2008,02,05,04,58,8.40
2008,02,05,04,59,4.50
2008,02,05,05,00,4.90
2008,02,05,05,01,7.70
2008,02,05,05,02,6.80
2008,02,05,05,03,6.70
2008,02,05,05,04,6.30
2008,02,05,05,05,8.70
2008,02,05,05,06,4.50
2008,02,05,05,07,9.90
2008,02,05,05,08,6.50
2008,02,05,05,09,8.90
2008,02,05,05,10,5.80
2008,02,05,05,11,5.30
2008,02,05,05,12,6.10
2008,02,05,05,13,7.50
2008,02,05,05,14,10.30
2008,02,05,05,15,6.70
2008,02,05,05,16,6.40
2008,02,05,05,17,4.60
2008,02,05,05,18,8.10
2008,02,05,05,19,11.70
2008,02,05,05,20,11.40
2008,02,05,05,21,13.20
2008,02,05,05,22,8.60
2008,02,05,05,23,12.30
2008,02,05,05,24,6.80
2008,02,05,05,25,9.90
2008,02,05,05,26,7.60
2008,02,05,05,27,9.70
2008,02,05,05,28,6.20
2008,02,05,05,29,10.20
2008,02,05,05,30,10.10
2008,02,05,05,31,16.50
2008,02,05,05,32,9.50
2008,02,05,05,33,9.70
2008,02,05,05,34,14.80
2008,02,05,05,35,9.10
2008,02,05,05,36,8.60
2008,02,05,05,37,9.90
2008,02,05,05,38,16.00
2008,02,05,05,39,11.30
2008,02,05,05,40,13.90
2008,02,05,05,41,10.30
2008,02,05,05,42,12.80
2008,02,05,05,43,11.40
2008,02,05,05,44,11.20
2008,02,05,05,45,7.00
2008,02,05,05,46,10.10
2008,02,05,05,47,12.80
2008,02,05,05,48,12.30
2008,02,05,05,49,8.40
2008,02,05,05,50,5.10
2008,02,05,05,51,10.70
2008,02,05,05,52,6.90
2008,02,05,05,53,9.20
2008,02,05,05,54,12.90
2008,02,05,05,55,7.80
2008,02,05,05,56,13.60
2008,02,05,05,57,11.30
2008,02,05,05,58,10.70
2008,02,05,05,59,10.70
2008,02,05,06,00,15.80
2008,02,05,06,01,11.40
2008,02,05,06,02,12.10
2008,02,05,06,03,10.10
2008,02,05,06,04,8.70
2008,02,05,06,05,6.40
2008,02,05,06,06,9.20
2008,02,05,06,07,7.40
2008,02,05,06,08,17.90
2008,02,05,06,09,11.20
2008,02,05,06,10,10.70
2008,02,05,06,11,10.80
2008,02,05,06,12,10.70
2008,02,05,06,13,12.00
2008,02,05,06,14,14.50
2008,02,05,06,15,15.20
2008,02,05,06,16,12.90
2008,02,05,06,17,11.30
2008,02,05,06,18,12.20
2008,02,05,06,19,16.60
2008,02,05,06,20,15.10
2008,02,05,06,21,16.90
2008,02,05,06,22,13.60
2008,02,05,06,23,13.40
2008,02,05,06,24,13.30
2008,02,05,06,25,16.40
2008,02,05,06,26,11.20
2008,02,05,06,27,16.20
2008,02,05,06,28,21.00
2008,02,05,06,29,13.00
2008,02,05,06,30,13.50
2008,02,05,06,31,19.60
2008,02,05,06,32,16.30
2008,02,05,06,33,10.70
2008,02,05,06,34,11.00
2008,02,05,06,35,14.70
2008,02,05,06,36,10.70
2008,02,05,06,37,13.10
2008,02,05,06,38,15.00
2008,02,05,06,39,13.00
2008,02,05,06,40,14.70
2008,02,05,06,41,14.10
2008,02,05,06,42,12.50
2008,02,05,06,43,14.70
2008,02,05,06,44,8.30
2008,02,05,06,45,13.80
2008,02,05,06,46,15.50
2008,02,05,06,47,11.60
2008,02,05,06,48,14.20
2008,02,05,06,49,8.70
2008,02,05,06,50,13.00
2008,02,05,06,51,10.60
2008,02,05,06,52,15.70
2008,02,05,06,53,13.90
2008,02,05,06,54,13.90
2008,02,05,06,55,13.40
2008,02,05,06,56,9.20
2008,02,05,06,57,9.70
2008,02,05,06,58,15.60
2008,02,05,06,59,16.40
2008,02,05,07,00,17.80
2008,02,05,07,01,16.00
2008,02,05,07,02,15.50
2008,02,05,07,03,17.10
2008,02,05,07,04,10.00
2008,02,05,07,05,12.70
2008,02,05,07,06,17.40
2008,02,05,07,07,10.80
2008,02,05,07,08,7.80
2008,02,05,07,09,10.10
2008,02,05,07,10,9.40
2008,02,05,07,11,9.00
2008,02,05,07,12,13.20
2008,02,05,07,13,16.80
2008,02,05,07,14,22.90
2008,02,05,07,15,13.30
2008,02,05,07,16,19.70
2008,02,05,07,17,16.80
2008,02,05,07,18,16.30
2008,02,05,07,19,16.90
2008,02,05,07,20,17.40
2008,02,05,07,21,8.50
2008,02,05,07,22,13.00
2008,02,05,07,23,15.30
2008,02,05,07,24,19.80
2008,02,05,07,25,16.60
2008,02,05,07,26,16.10
2008,02,05,07,27,15.50
2008,02,05,07,28,20.80
2008,02,05,07,29,13.90
2008,02,05,07,30,12.50
2008,02,05,07,31,17.00
2008,02,05,07,32,12.50
2008,02,05,07,33,10.80
2008,02,05,07,34,12.20
2008,02,05,07,35,13.60
2008,02,05,07,36,10.30
2008,02,05,07,37,11.50
2008,02,05,07,38,12.00
2008,02,05,07,39,18.10
2008,02,05,07,40,17.30
2008,02,05,07,41,9.30
2008,02,05,07,42,13.00
2008,02,05,07,43,15.80
2008,02,05,07,44,19.50
2008,02,05,07,45,17.40
2008,02,05,07,46,10.70
2008,02,05,07,47,11.40
2008,02,05,07,48,13.90
2008,02,05,07,49,13.60
2008,02,05,07,50,14.60
2008,02,05,07,51,9.20
2008,02,05,07,52,12.00
2008,02,05,07,53,11.40
2008,02,05,07,54,14.20
2008,02,05,07,55,8.30
2008,02,05,07,56,19.80
2008,02,05,07,57,13.40
2008,02,05,07,58,9.30
2008,02,05,07,59,13.60
2008,02,05,08,00,14.70
2008,02,05,08,01,9.20
2008,02,05,08,02,11.20
2008,02,05,08,03,16.90
2008,02,05,08,04,23.00
2008,02,05,08,05,18.40
2008,02,05,08,06,14.40
2008,02,05,08,07,17.50
2008,02,05,08,08,20.00
2008,02,05,08,09,16.80
2008,02,05,08,10,21.70
2008,02,05,08,11,21.30
2008,02,05,08,12,13.90
2008,02,05,08,13,18.20
2008,02,05,08,14,19.50
2008,02,05,08,15,20.90
2008,02,05,08,16,17.40
2008,02,05,08,17,12.70
2008,02,05,08,18,16.00
2008,02,05,08,19,14.60
2008,02,05,08,20,16.30
2008,02,05,08,21,22.50
2008,02,05,08,22,13.60
2008,02,05,08,23,13.00
2008,02,05,08,24,12.10
2008,02,05,08,25,20.50
2008,02,05,08,26,16.90
2008,02,05,08,27,16.70
2008,02,05,08,28,11.10
2008,02,05,08,29,13.40
2008,02,05,08,30,19.60
2008,02,05,08,31,17.80
2008,02,05,08,32,15.50
2008,02,05,08,33,19.70
2008,02,05,08,34,14.50
2008,02,05,08,35,13.10
2008,02,05,08,36,24.10
2008,02,05,08,37,19.80
2008,02,05,08,38,17.80
2008,02,05,08,39,23.40
2008,02,05,08,40,23.40
2008,02,05,08,41,20.30
2008,02,05,08,42,22.40
2008,02,05,08,43,26.60
2008,02,05,08,44,17.20
2008,02,05,08,45,14.10
2008,02,05,08,46,20.50
2008,02,05,08,47,23.20
2008,02,05,08,48,18.70
2008,02,05,08,49,16.40
2008,02,05,08,50,26.20
2008,02,05,08,51,17.70
2008,02,05,08,52,18.40
2008,02,05,08,53,23.50
2008,02,05,08,54,16.70
2008,02,05,08,55,24.70
2008,02,05,08,56,20.80
2008,02,05,08,57,20.50
2008,02,05,08,58,17.20
2008,02,05,08,59,19.80
2008,02,05,09,00,13.30
2008,02,05,09,01,21.90
2008,02,05,09,02,21.70
2008,02,05,09,03,21.30
2008,02,05,09,04,20.50
2008,02,05,09,05,20.10
2008,02,05,09,06,26.80
2008,02,05,09,07,17.60
2008,02,05,09,08,16.40
2008,02,05,09,09,20.70
2008,02,05,09,10,20.00
2008,02,05,09,11,19.80
2008,02,05,09,12,21.90
2008,02,05,09,13,20.10
2008,02,05,09,14,14.10
2008,02,05,09,15,18.50
2008,02,05,09,16,13.50
2008,02,05,09,17,25.00
2008,02,05,09,18,22.50
2008,02,05,09,19,20.00
2008,02,05,09,20,13.00
2008,02,05,09,21,22.20
2008,02,05,09,22,20.40
2008,02,05,09,23,19.10
2008,02,05,09,24,20.80
2008,02,05,09,25,14.20
2008,02,05,09,26,18.50
2008,02,05,09,27,18.60
2008,02,05,09,28,23.20
2008,02,05,09,29,16.70
2008,02,05,09,30,21.70
2008,02,05,09,31,21.10
2008,02,05,09,32,18.50
2008,02,05,09,33,21.20
2008,02,05,09,34,24.30
2008,02,05,09,35,18.30
2008,02,05,09,36,15.20
2008,02,05,09,37,12.50
2008,02,05,09,38,27.10
2008,02,05,09,39,20.80
2008,02,05,09,40,23.70
2008,02,05,09,41,20.90
2008,02,05,09,42,23.70
2008,02,05,09,43,18.00
2008,02,05,09,44,18.00
2008,02,05,09,45,23.90
2008,02,05,09,46,17.90
2008,02,05,09,47,13.40
2008,02,05,09,48,19.70
2008,02,05,09,49,25.10
2008,02,05,09,50,18.40
2008,02,05,09,51,19.20
2008,02,05,09,52,25.10
2008,02,05,09,53,23.80
2008,02,05,09,54,20.50
2008,02,05,09,55,29.60
2008,02,05,09,56,25.00
2008,02,05,09,57,22.90
2008,02,05,09,58,23.00
2008,02,05,09,59,19.10
2008,02,05,10,00,16.30
2008,02,05,10,01,23.70
2008,02,05,10,02,15.20
2008,02,05,10,03,8.60
2008,02,05,10,04,18.40
2008,02,05,10,05,11.60
2008,02,05,10,06,9.30
2008,02,05,10,07,17.60
2008,02,05,10,08,11.90
2008,02,05,10,09,13.60
2008,02,05,10,10,8.50
2008,02,05,10,11,15.60
2008,02,05,10,12,12.40
2008,02,05,10,13,21.70
2008,02,05,10,14,16.30
2008,02,05,10,15,10.30
2008,02,05,10,16,7.70
2008,02,05,10,17,8.60
2008,02,05,10,18,16.20
2008,02,05,10,19,15.00
2008,02,05,10,20,10.30
2008,02,05,10,21,11.30
2008,02,05,10,22,10.60
2008,02,05,10,23,10.80
2008,02,05,10,24,8.70
2008,02,05,10,25,17.60
2008,02,05,10,26,17.70
2008,02,05,10,27,9.70
2008,02,05,10,28,16.50
2008,02,05,10,29,12.00
2008,02,05,10,30,15.00
2008,02,05,10,31,15.20
2008,02,05,10,32,9.70
2008,02,05,10,33,8.60
2008,02,05,10,34,7.60
2008,02,05,10,35,6.40
2008,02,05,10,36,5.90
2008,02,05,10,37,5.90
2008,02,05,10,38,3.90
2008,02,05,10,39,1.60
2008,02,05,10,40,3.00
2008,02,05,10,41,4.70
2008,02,05,10,42,6.20
2008,02,05,10,43,7.90
2008,02,05,10,44,12.10
2008,02,05,10,45,12.10
2008,02,05,10,46,13.30
2008,02,05,10,47,15.00
2008,02,05,10,48,15.50
2008,02,05,10,49,8.70
2008,02,05,10,50,13.40
2008,02,05,10,51,9.80
2008,02,05,10,52,2.50
2008,02,05,10,53,4.50
2008,02,05,10,54,5.00
2008,02,05,10,55,4.70
2008,02,05,10,56,9.90
2008,02,05,10,57,7.20
2008,02,05,10,58,3.30
2008,02,05,10,59,4.20
2008,02,05,11,00,6.10
2008,02,05,11,01,8.80
2008,02,05,11,02,5.60
2008,02,05,11,03,7.80
2008,02,05,11,04,6.40
2008,02,05,11,05,5.30
2008,02,05,11,06,3.70
2008,02,05,11,07,4.50
2008,02,05,11,08,8.60
2008,02,05,11,09,6.80
2008,02,05,11,10,7.30
2008,02,05,11,11,6.40
2008,02,05,11,12,6.40
2008,02,05,11,13,11.80
2008,02,05,11,14,5.40
2008,02,05,11,15,4.10
2008,02,05,11,16,4.80
2008,02,05,11,17,4.50
2008,02,05,11,18,6.50
2008,02,05,11,19,11.30
2008,02,05,11,20,8.10
2008,02,05,11,21,9.60
2008,02,05,11,22,6.50
2008,02,05,11,23,5.50
2008,02,05,11,24,8.60
2008,02,05,11,25,5.30
2008,02,05,11,26,4.80
2008,02,05,11,27,4.50
2008,02,05,11,28,7.20
2008,02,05,11,29,7.10
2008,02,05,11,30,6.80
2008,02,05,11,31,9.20
2008,02,05,11,32,10.00
2008,02,05,11,33,7.60
2008,02,05,11,34,3.10
2008,02,05,11,35,5.00
2008,02,05,11,36,6.40
2008,02,05,11,37,5.60
2008,02,05,11,38,3.90
2008,02,05,11,39,3.60
2008,02,05,11,40,3.20
2008,02,05,11,41,4.60
2008,02,05,11,42,5.30
2008,02,05,11,43,4.10
2008,02,05,11,44,4.40
2008,02,05,11,45,5.10
2008,02,05,11,46,1.10
2008,02,05,11,47,0.00
2008,02,05,11,48,0.00
2008,02,05,11,49,0.10
2008,02,05,11,50,1.80
2008,02,05,11,51,0.80
2008,02,05,11,52,0.00
2008,02,05,11,53,0.00
2008,02,05,11,54,1.20
2008,02,05,11,55,1.70
2008,02,05,11,56,0.20
2008,02,05,11,57,0.10
2008,02,05,11,58,1.00
2008,02,05,11,59,3.60
2008,02,05,12,00,7.10
2008,02,05,12,01,5.30
2008,02,05,12,02,2.80
2008,02,05,12,03,3.00
2008,02,05,12,04,2.40
2008,02,05,12,05,2.50
2008,02,05,12,06,4.70
2008,02,05,12,07,5.30
2008,02,05,12,08,1.70
2008,02,05,12,09,4.70
2008,02,05,12,10,6.80
2008,02,05,12,11,5.20
2008,02,05,12,12,6.50
2008,02,05,12,13,6.00
2008,02,05,12,14,4.30
2008,02,05,12,15,5.30
2008,02,05,12,16,7.10
2008,02,05,12,17,8.60
2008,02,05,12,18,9.70
2008,02,05,12,19,7.60
2008,02,05,12,20,5.20
2008,02,05,12,21,5.40
2008,02,05,12,22,6.50
2008,02,05,12,23,7.70
2008,02,05,12,24,5.50
2008,02,05,12,25,3.70
2008,02,05,12,26,2.60
2008,02,05,12,27,6.90
2008,02,05,12,28,7.10
2008,02,05,12,29,1.40
2008,02,05,12,30,3.00
2008,02,05,12,31,4.70
2008,02,05,12,32,4.00
2008,02,05,12,33,4.80
2008,02,05,12,34,6.50
2008,02,05,12,35,7.30
2008,02,05,12,36,7.00
2008,02,05,12,37,6.80
2008,02,05,12,38,6.20
2008,02,05,12,39,6.60
2008,02,05,12,40,4.70
2008,02,05,12,41,5.30
2008,02,05,12,42,5.30
2008,02,05,12,43,5.70
2008,02,05,12,44,5.70
2008,02,05,12,45,3.70
2008,02,05,12,46,4.30
2008,02,05,12,47,6.50
2008,02,05,12,48,11.10
2008,02,05,12,49,5.70
2008,02,05,12,50,9.70
2008,02,05,12,51,5.50
2008,02,05,12,52,6.20
2008,02,05,12,53,6.50
2008,02,05,12,54,6.60
2008,02,05,12,55,3.40
2008,02,05,12,56,4.00
2008,02,05,12,57,4.60
2008,02,05,12,58,1.40
2008,02,05,12,59,7.40
2008,02,05,13,00,8.20
2008,02,05,13,01,9.50
2008,02,05,13,02,4.30
2008,02,05,13,03,3.00
2008,02,05,13,04,2.00
2008,02,05,13,05,1.20
2008,02,05,13,06,4.30
2008,02,05,13,07,4.10
2008,02,05,13,08,2.50
2008,02,05,13,09,0.90
2008,02,05,13,10,0.30
2008,02,05,13,11,2.10
2008,02,05,13,12,5.00
2008,02,05,13,13,4.60
2008,02,05,14,06,25.00
2008,02,05,14,07,18.30
2008,02,05,14,08,10.00
2008,02,05,14,09,12.60
2008,02,05,14,10,14.10
2008,02,05,14,11,18.40
2008,02,05,14,12,13.40
2008,02,05,14,13,15.80
2008,02,05,14,14,15.00
2008,02,05,14,15,18.30
2008,02,05,14,16,10.00
2008,02,05,14,17,12.50
2008,02,05,14,18,19.10
2008,02,05,14,19,20.40
2008,02,05,14,20,18.70
2008,02,05,14,21,20.00
2008,02,05,14,22,30.00
2008,02,05,14,23,26.70
2008,02,05,14,24,27.40
2008,02,05,14,25,24.50
2008,02,05,14,26,22.30
2008,02,05,15,16,15.40
2008,02,05,15,17,16.40
2008,02,05,15,18,10.90
2008,02,05,15,19,12.20
2008,02,05,15,20,5.70
2008,02,05,15,21,14.40
2008,02,05,15,22,22.60
2008,02,05,15,23,17.80
2008,02,05,15,24,18.70
2008,02,05,15,25,14.50
2008,02,05,15,26,21.20
2008,02,05,15,27,20.00
2008,02,05,15,28,11.30
2008,02,05,15,29,20.90
2008,02,05,15,30,23.30
2008,02,05,15,31,20.60
2008,02,05,15,32,18.20
2008,02,05,15,33,19.30
2008,02,05,15,34,14.00
2008,02,05,15,35,23.40
2008,02,05,15,36,16.00
2008,02,05,15,37,14.50
2008,02,05,15,38,11.20
2008,02,05,15,39,23.30
2008,02,05,15,40,17.20
2008,02,05,15,41,16.90
2008,02,05,15,42,27.50
2008,02,05,15,43,15.30
2008,02,05,15,44,16.80
2008,02,05,15,45,18.50
2008,02,05,15,46,24.10
2008,02,05,15,47,20.30
2008,02,05,15,48,21.70
2008,02,05,15,49,13.80
2008,02,05,15,50,29.80
2008,02,05,15,51,34.30
2008,02,05,15,52,22.60
2008,02,05,15,53,26.60
2008,02,05,15,54,25.30
2008,02,05,15,55,24.70
2008,02,05,15,56,29.50
2008,02,05,15,57,25.00
2008,02,05,15,58,21.50
2008,02,05,15,59,15.60
2008,02,05,16,00,14.90
2008,02,05,16,01,22.70
2008,02,05,16,02,27.10
2008,02,05,16,03,24.10
2008,02,05,16,04,24.30
2008,02,05,16,05,17.90
2008,02,05,16,06,23.30
2008,02,05,16,07,14.10
2008,02,05,16,08,19.50
2008,02,05,16,09,18.00
2008,02,05,16,10,25.20
2008,02,05,16,11,29.20
2008,02,05,16,12,20.70
2008,02,05,16,13,15.30
2008,02,05,16,14,27.10
2008,02,05,16,15,14.80
2008,02,05,16,16,19.20
2008,02,05,16,17,16.50
2008,02,05,16,18,7.70
2008,02,05,16,19,26.00
2008,02,05,16,20,21.20
2008,02,05,16,21,21.20
2008,02,05,16,22,16.30
2008,02,05,16,23,14.90
2008,02,05,16,24,22.40
2008,02,05,16,25,12.30
2008,02,05,16,26,12.20
2008,02,05,16,27,18.20
2008,02,05,16,28,16.70
2008,02,05,16,29,20.30
2008,02,05,16,30,23.70
2008,02,05,16,31,20.20
2008,02,05,16,32,25.40
2008,02,05,16,33,24.00
2008,02,05,16,34,22.70
2008,02,05,16,35,30.70
2008,02,05,16,36,20.00
2008,02,05,16,37,16.10
2008,02,05,16,38,14.60
2008,02,05,16,39,18.40
2008,02,05,16,40,29.10
2008,02,05,16,41,20.10
2008,02,05,16,42,31.40
2008,02,05,16,43,16.30
2008,02,05,16,44,30.20
2008,02,05,16,45,24.20
2008,02,05,16,46,14.70
2008,02,05,16,47,11.20
2008,02,05,16,48,9.70
2008,02,05,16,49,9.40
2008,02,05,16,50,15.40
2008,02,05,16,51,15.40
2008,02,05,16,52,12.20
2008,02,05,16,53,16.70
2008,02,05,16,54,27.40
2008,02,05,16,55,18.50
2008,02,05,16,56,21.70
2008,02,05,16,57,17.70
2008,02,05,16,58,24.90
2008,02,05,16,59,13.50
2008,02,05,17,00,20.70
2008,02,05,17,01,42.20
2008,02,05,17,02,43.30
2008,02,05,17,03,43.70
2008,02,05,17,04,45.80
2008,02,05,17,05,36.40
2008,02,05,17,06,29.40
2008,02,05,17,07,27.20
2008,02,05,17,08,30.30
2008,02,05,17,09,23.60
2008,02,05,17,10,40.40
2008,02,05,17,11,22.90
2008,02,05,17,12,37.30
2008,02,05,17,13,28.20
2008,02,05,17,14,29.10
2008,02,05,17,15,37.30
2008,02,05,17,16,26.50
2008,02,05,17,17,28.40
2008,02,05,17,18,24.10
2008,02,05,17,19,20.60
2008,02,05,17,20,29.20
2008,02,05,17,21,21.00
2008,02,05,17,22,15.80
2008,02,05,17,23,6.00
2008,02,05,17,24,13.90
2008,02,05,17,25,16.90
2008,02,05,17,26,10.80
2008,02,05,17,27,8.70
2008,02,05,17,28,8.30
2008,02,05,17,29,10.20
2008,02,05,17,30,18.60
2008,02,05,17,31,17.80
2008,02,05,17,32,13.80
2008,02,05,17,33,15.80
2008,02,05,17,34,15.30
2008,02,05,17,35,15.20
2008,02,05,17,36,26.80
2008,02,05,17,37,34.00
2008,02,05,17,38,21.40
2008,02,05,17,39,21.10
2008,02,05,17,40,34.20
2008,02,05,17,41,25.50
2008,02,05,17,42,20.40
2008,02,05,17,43,30.30
2008,02,05,17,44,17.40
2008,02,05,17,45,24.80
2008,02,05,17,46,6.30
2008,02,05,17,47,16.30
2008,02,05,17,48,9.70
2008,02,05,17,49,13.00
2008,02,05,17,50,19.60
2008,02,05,17,51,15.50
2008,02,05,17,52,17.40
2008,02,05,17,53,10.00
2008,02,05,17,54,12.50
2008,02,05,17,55,10.90
2008,02,05,17,56,12.50
2008,02,05,17,57,5.10
2008,02,05,17,58,5.50
2008,02,05,17,59,9.90
2008,02,05,18,00,14.00
2008,02,05,18,01,17.40
2008,02,05,18,02,4.70
2008,02,05,18,03,9.70
2008,02,05,18,04,18.90
2008,02,05,18,05,11.50
2008,02,05,18,06,14.60
2008,02,05,18,07,29.30
2008,02,05,18,08,25.20
2008,02,05,18,09,20.20
2008,02,05,18,10,18.90
2008,02,05,18,11,14.60
2008,02,05,18,12,5.40
2008,02,05,18,13,5.60
2008,02,05,18,14,18.60
2008,02,05,18,15,15.40
2008,02,05,18,16,14.60
2008,02,05,18,17,10.80
2008,02,05,18,18,10.00
2008,02,05,18,19,5.10
2008,02,05,18,20,6.20
2008,02,05,18,21,12.90
2008,02,05,18,22,11.90
2008,02,05,18,23,8.90
2008,02,05,18,24,6.40
2008,02,05,18,25,8.50
2008,02,05,18,26,4.70
2008,02,05,18,27,12.60
2008,02,05,18,28,13.70
2008,02,05,18,29,11.30
2008,02,05,18,30,8.80
2008,02,05,18,31,11.70
2008,02,05,18,32,10.30
2008,02,05,18,33,10.40
2008,02,05,18,34,17.90
2008,02,05,18,35,15.80
2008,02,05,18,36,13.00
2008,02,05,18,37,12.80
2008,02,05,18,38,12.50
2008,02,05,18,39,14.10
2008,02,05,18,40,12.60
2008,02,05,18,41,14.10
2008,02,05,18,42,8.80
2008,02,05,18,43,8.80
2008,02,05,18,44,14.20
2008,02,05,18,45,13.30
2008,02,05,18,46,12.80
2008,02,05,18,47,16.50
2008,02,05,18,48,9.70
2008,02,05,18,49,7.60
2008,02,05,18,50,7.10
2008,02,05,18,51,4.70
2008,02,05,18,52,4.10
2008,02,05,18,53,3.10
2008,02,05,18,54,3.10
2008,02,05,18,55,5.00
2008,02,05,18,56,1.40
2008,02,05,18,57,3.40
2008,02,05,18,58,16.30
2008,02,05,18,59,9.00
2008,02,05,19,00,3.50
2008,02,05,19,01,8.90
2008,02,05,19,02,3.10
2008,02,05,19,03,8.60
2008,02,05,19,04,8.50
2008,02,05,19,05,6.20
2008,02,05,19,06,5.40
2008,02,05,19,07,4.80
2008,02,05,19,08,6.40
2008,02,05,19,09,8.50
2008,02,05,19,10,8.60
2008,02,05,19,11,8.90
2008,02,05,19,12,5.10
2008,02,05,19,13,8.20
2008,02,05,19,14,10.50
2008,02,05,19,15,17.60
2008,02,05,19,16,5.80
2008,02,05,19,17,4.10
2008,02,05,19,18,16.60
2008,02,05,19,19,20.10